Theta_e
306 305 304 305 304 304 304 304 302 299 299 296 293 295 294 295 294 295 301 303 304 304 304 305 305 305 306
305 305 304 305 305 303 304 301 301 299 298 296 293 295 295 295 293 294 299 299 299 299 301 301 301 302 302
303 303 302 302 302 302 301 298 300 298 297 297 294 296 295 294 292 292 296 296 294 294 294 295 296 297 299
303 302 301 299 298 298 296 296 298 299 297 296 294 294 295 293 291 290 293 295 295 295 293 292 292 294 295
300 299 298 298 296 296 297 296 294 295 295 294 293 292 291 291 291 290 289 294 294 294 292 290 289 289 290
299 297 297 297 296 296 295 294 291 293 294 292 292 292 292 292 292 290 290 292 293 292 291 288 288 288 288
300 299 298 297 296 295 294 294 293 293 293 292 292 292 292 291 292 291 290 293 293 292 290 288 288 287 287
300 300 299 298 296 295 293 293 293 293 292 290 291 292 291 291 291 290 289 294 293 291 290 288 287 288 287
299 299 299 299 297 295 293 291 290 291 291 291 291 291 290 291 290 289 289 294 292 292 290 289 288 288 287
299 298 297 296 296 296 295 292 291 291 292 291 290 290 288 290 289 289 290 291 292 291 291 290 289 288 286
298 298 297 296 295 295 294 294 291 291 291 291 289 290 288 288 288 287 288 290 291 290 289 290 289 287 286
296 297 296 296 295 294 294 293 292 291 291 291 289 287 287 289 288 288 287 287 288 288 287 286 286 286 286
296 297 297 296 295 294 293 292 291 290 290 289 289 287 286 287 288 288 287 286 286 286 285 285 285 285 285
295 295 295 295 295 294 293 292 290 290 289 287 286 286 285 285 285 285 286 286 286 286 285 285 285 287 285
294 294 294 294 294 294 292 290 288 288 287 287 285 285 285 284 285 285 285 285 285 286 286 285 287 286 284
292 293 292 292 292 291 291 289 288 286 287 287 287 284 283 285 285 284 284 285 285 285 285 284 284 287 285
291 291 292 291 291 290 289 289 288 287 287 288 286 284 281 282 287 286 284 284 285 285 285 283 283 285 285
Wind_Speed
18 16 19 19 17 11 12 15 15 13 14 12 10 7 7 7 6 7 9 11 12 12 13 14 14 14 14
20 19 16 13 17 13 14 13 15 16 15 12 10 9 6 5 4 4 5 6 7 9 11 11 11 12 11
20 19 19 15 14 12 16 16 16 14 14 13 9 8 8 6 4 2 3 3 3 4 5 6 7 8 8
23 22 18 16 14 16 17 10 11 13 15 14 13 11 10 9 6 4 1 1 2 3 3 3 4 5 5
18 17 16 18 17 11 9 11 14 14 14 13 11 12 12 11 10 7 6 5 4 3 1 1 1 1 1
20 18 23 20 17 16 13 6 3 5 6 8 8 11 10 11 10 10 8 8 8 6 5 3 3 2 2
25 26 24 19 16 13 13 11 9 12 11 12 10 13 11 12 13 12 10 11 11 9 7 7 6 6 6
24 29 29 25 16 16 14 12 12 13 11 5 7 11 10 11 13 12 12 13 11 10 8 8 8 9 9
20 20 19 17 16 16 14 11 5 7 12 10 7 7 9 12 13 11 11 13 12 11 10 10 10 10 11
14 17 18 19 22 23 22 15 11 4 11 10 6 5 3 5 8 11 11 13 14 13 13 12 12 13 13
15 15 14 16 18 18 22 23 22 21 6 13 6 6 5 2 4 9 12 11 15 14 13 14 13 11 14
14 16 17 17 18 19 18 18 19 23 18 15 8 12 6 4 4 5 7 12 15 16 16 15 14 13 14
18 21 21 22 16 16 18 18 19 20 19 20 19 16 14 8 3 6 4 7 9 11 11 13 14 11 15
17 18 17 18 20 20 20 21 20 22 21 20 18 17 17 17 16 17 16 8 7 8 8 12 14 15 16
15 15 15 15 21 22 22 20 17 15 18 20 19 17 17 16 14 21 22 19 18 17 14 17 18 16 16
16 16 14 14 17 20 20 18 16 16 17 18 16 14 12 17 25 27 21 18 14 14 13 14 21 18 15
17 18 17 15 14 16 17 17 16 18 18 19 19 14 3 4 5 14 20 15 14 14 14 14 17 23 20
Wind_Direction
281 294 294 295 312 298 297 298 306 298 301 308 321 328 334 346 11 40 60 70 70 67 69 70 69 75 74
280 290 291 295 301 290 290 295 290 295 293 302 304 301 309 315 351 55 78 82 85 83 80 75 73 72 75
273 283 292 290 291 283 287 290 282 290 293 294 286 279 289 295 316 36 99 81 80 87 91 91 82 72 70
266 275 279 288 285 287 294 294 289 275 285 285 281 272 271 288 290 298 238 197 101 93 100 107 103 99 94
257 266 266 277 279 287 268 291 296 280 275 281 277 274 266 268 272 273 262 248 245 219 172 137 148 136 124
251 255 265 269 277 265 259 287 308 273 269 297 281 273 272 263 267 257 258 239 243 254 262 278 290 287 304
256 258 264 266 261 249 253 251 245 277 280 290 290 268 274 258 260 263 243 223 237 250 260 260 269 278 289
261 264 264 264 262 261 255 249 257 267 252 262 271 252 269 257 256 265 235 223 226 244 252 255 270 283 288
275 277 275 270 257 250 236 245 268 256 238 234 253 249 256 254 260 255 242 222 237 243 259 264 273 289 291
275 265 266 267 263 254 255 237 227 274 226 208 231 232 286 260 249 244 240 226 234 248 255 264 275 284 285
280 282 282 267 276 265 259 254 240 237 250 208 219 220 233 263 252 230 241 236 241 250 255 258 266 269 282
277 269 271 274 275 269 266 261 252 251 254 239 241 225 216 206 242 246 243 246 247 253 259 260 261 270 274
273 272 276 278 268 259 252 247 246 246 246 244 245 247 239 232 232 232 256 264 258 255 256 258 270 265 282
279 282 285 285 263 255 244 239 236 244 245 244 243 243 244 247 251 258 253 251 254 255 259 273 275 277 281
282 281 281 277 260 251 240 239 232 244 246 242 239 242 247 251 249 253 260 259 260 265 268 279 281 284 285
291 283 275 268 254 246 242 226 225 234 235 240 231 230 249 262 249 254 258 260 258 253 266 273 287 298 299
285 285 277 267 250 234 231 228 229 236 237 231 223 203 188 239 274 238 245 249 249 253 260 259 277 297 305